This is the latest recevied weather packets stored in our database for station/object F5SHG-3. If no packets are shown the sender has not sent any weather packets the latest 10 day(s).
| Time | Temp. | Humidity | Pressure | Rain* | Wind** | Luminosity | Snow |
|---|---|---|---|---|---|---|---|
| 1777374924 | 21.67° C | 36% | 1015.4 hPa | - | - | - | - |
| 1777374919 | 21.67° C | 36% | 1015.4 hPa | - | - | - | - |
| 1777374025 | 21.67° C | 40% | 1015.3 hPa | - | - | - | - |
| 1777374019 | 21.67° C | 40% | 1015.3 hPa | - | - | - | - |
| 1777373124 | 21.11° C | 41% | 1015.5 hPa | - | - | - | - |
| 1777373118 | 21.11° C | 41% | 1015.5 hPa | - | - | - | - |
| 1777372225 | 20° C | 42% | 1015.5 hPa | - | - | - | - |
| 1777372218 | 20° C | 42% | 1015.5 hPa | - | - | - | - |
| 1777371324 | 19.44° C | 45% | 1015.6 hPa | - | - | - | - |
| 1777371317 | 19.44° C | 45% | 1015.6 hPa | - | - | - | - |
| 1777370425 | 18.33° C | 48% | 1015.6 hPa | - | - | - | - |
| 1777370417 | 18.33° C | 48% | 1015.6 hPa | - | - | - | - |
| 1777369525 | 17.22° C | 50% | 1015.6 hPa | - | - | - | - |
| 1777369522 | 17.22° C | 50% | 1015.6 hPa | - | - | - | - |
| 1777368625 | 16.67° C | 50% | 1015.8 hPa | - | - | - | - |
| 1777368621 | 16.67° C | 50% | 1015.8 hPa | - | - | - | - |
| 1777367725 | 16.11° C | 51% | 1015.6 hPa | - | - | - | - |
| 1777367721 | 16.11° C | 51% | 1015.6 hPa | - | - | - | - |
| 1777366825 | 16.11° C | 51% | 1015.3 hPa | - | - | - | - |
| 1777366821 | 16.11° C | 51% | 1015.3 hPa | - | - | - | - |
| 1777365925 | 15.56° C | 50% | 1015.6 hPa | - | - | - | - |
| 1777365921 | 15.56° C | 50% | 1015.6 hPa | - | - | - | - |
| 1777365021 | 15.56° C | 51% | 1015.4 hPa | - | - | - | - |
| 1777364125 | 15° C | 51% | 1015.4 hPa | - | - | - | - |
| 1777364121 | 15° C | 51% | 1015.4 hPa | - | - | - | - |
* Rain since midnight (hover to see other rain measurements)
** Current wind speed in m/s (hover to see current wind gust speed)